Other Surface Observations
Issued by NWS Tucson, AZ

Home | Current Version | Previous Version | Text Only | Print | Product List | Glossary On
Versions: 1 2 3 4 5 6 7 8 9 10 11 12 13 14 15 16 17 18 19 20 21 22 23 24 25 26 27 28 29 30 31 32 33 34 35 36 37 38 39 40 41 42 43 44 45 46 47 48 49 50
013
SXUS55 KTWC 052315
OSOTWC

WEATHER ROUNDUP FOR SOUTHEAST ARIZONA
NATIONAL WEATHER SERVICE TUCSON AZ
415 PM MST FRI FEB 05 2016

AZZ504>506-514-060015-
LOCATION       SKY/WX    TMP DP  RH WIND       PRES   REMARKS
TUCSON         SUNNY     64  12  13 VRB5      30.27F
DAVIS-MONTHAN  SUNNY     62  14  15 N5        30.25S
CHILDRENS PARK N/A      N/A N/A  16 W2                PIMA CO DEQ
ALVERNON/22ND  N/A       64 N/A N/A NW2               PIMA CO DEQ
CHERRY/GLENN   N/A       64 N/A N/A N/A               PIMA CO DEQ
TANGERINE      N/A       64 N/A N/A N/A               PIMA CO DEQ
CONTL RANCH    N/A       66  15  14 NW2               PIMA CO DEQ
GRANT/1ST      N/A       62  15  16 NW2               PIMA CO DEQ
CRAYCROFT/22ND N/A       62  14  15 N/A               PIMA CO DEQ
GOLFLINKS/KOLB N/A       61  13  15 NW3               PIMA CO DEQ
AJO/12TH       N/A       62  11  13 N/A               PIMA CO DEQ
SAGUARO EAST   N/A       17 -20  16 NW5               PIMA CO DEQ
FAIRGROUNDS    N/A       61 N/A N/A N/A               PIMA CO DEQ
SAGUARO        N/A       64  15  15 W7G12             *SABINO CYN
SAN CARLOS     N/A       63  10  12 NE4G10            *SAN CARLOS
GREEN VALLEY   N/A       61  11  14 N11               PIMA CO DEQ
HORSE CAMP CYN N/A       57  15  19 E10G16            *ARAVAIPA CYN
RINCON MTNS    N/A       44   8  22 NE4G11            *NR MANNING CAMP
$$

AZZ509>511-060015-
LOCATION       SKY/WX    TMP DP  RH WIND       PRES   REMARKS
SAFFORD        SUNNY     59  13  16 W5        30.29S
STRAY HORSE    N/A       42   2  18 E5                *
TRAIL CABIN    N/A       47   0  14 E7G15             *N OF GRANVILLE
BLACK HILLS    N/A       59  16  18 SE2               *N OF FT THOMAS
DRY LAKE       N/A       44   1  16 NE6G11            *NATANES MTNS
NOON CREEK     N/A       54   7  15 E4G10             *PINALENO MTNS
COLUMBINE      N/A       45  -3  13 N3                *PINALENO MTNS
GUTHRIE        N/A       45   3  17 NE12G29           *SW OF GUTHRIE
$$

AZZ502-503-513-060015-
LOCATION       SKY/WX    TMP DP  RH WIND       PRES   REMARKS
NOGALES        SUNNY     65   6  10 N15G23    30.22F
SELLS          N/A       65  16  15 NE15G25           *
SASABE         N/A       61  11  14 N13G22            *ALTAR VLY
HOPKINS        N/A       54   9  16 SE5G19            *SANTA RITA MTNS
CARR CYN       N/A       57  11  16 E3                *W OF HEREFORD
$$

AZZ507-508-512-060015-
LOCATION       SKY/WX    TMP DP  RH WIND       PRES   REMARKS
SIERRA VISTA   SUNNY     58   8  13 E7        30.29S
DOUGLAS        SUNNY     61  11  14 VRB7      30.28S
EMPIRE MTNS    N/A       58  11  15 N10G16            *LAS CIENEGAS NCA
MULESHOE RANCH N/A       56  16  20 N8G15             *PRESERVE
HEADQUARTERS   N/A       51  10  19 SE8G16            *CHIRICAHUA MTNS
$$

.............................NOTES.............................
THIS IS AN AUTOMATED COLLECTIVE WITH MINIMAL QUALITY CONTROL.
PIMA CO DEQ SITES HAVE NONSTANDARD WIND SENSOR HEIGHTS.
PIMA CO DEQ SITES DO NOT REPORT WIND GUSTS.
* INDICATES WIND SENSORS LOCATED AT 20 FEET INSTEAD OF 33 FEET.
..............................KEY..............................
SKY/WX - SKY CONDITION/WEATHER
TMP    - TEMPERATURE IN FAHRENHEIT
DP     - DEWPOINT IN FAHRENHEIT
RH     - RELATIVE HUMIDITY IN PERCENT
WIND   - DIRECTION AND SPEED IN MILES PER HOUR (MPH)
VRB    - VARIABLE WIND DIRECTION
PRES   - MEAN SEA LEVEL PRESSURE IN INCHES OF MERCURY
         F - FALLING PRESSURE   R - RISING PRESSURE
         S - STEADY PRESSURE
VSB    - VISIBILITY IN MILES
HX     - HEAT INDEX IN FAHRENHEIT
WCI    - WIND CHILL INDEX IN FAHRENHEIT
N/A    - NOT AVAILABLE
AFB    - AIR FORCE BASE
         DAVIS-MONTHAN IS DAVIS-MONTHAN AIR FORCE BASE
CYN    - CANYON
MTNS   - MOUNTAINS
NCA    - NATIONAL CONSERVATION AREA
NR     - NEAR
VLY    - VALLEY
CONTL  - CONTINENTAL
PIMA CO DEQ - PIMA COUNTY DEPT OF ENVIRONMENTAL QUALITY



USA.gov is the U.S. government's official web portal to all federal, state and local government web resources and services.